Location: Fort Wayne
(41.1310°N, 85.1290°W)
Time: 21:14:56
(UTC-05:00)

Courier 1B Rocket - All Passes

Search period start: 22 December 2014 00:00
Search period end: 01 January 2015 00:00
Orbit: 920 x 1202 km, 28.2° (Epoch: 21 December)

Date Brightness Start Highest point End Pass type
(mag) Time Alt. Az. Time Alt. Az. Time Alt. Az.
22 Dec - 02:43:13 10° SSW 02:46:34 15° SSE 02:49:59 10° SE night (unlit)
22 Dec - 04:33:54 10° SW 04:38:59 25° S 04:44:18 10° ESE visible
22 Dec - 06:26:23 10° WSW 06:31:37 25° S 06:37:08 10° SE visible
22 Dec - 08:20:30 10° SW 08:24:14 15° SSW 08:28:06 10° SSE daylight
23 Dec - 01:44:42 10° SSE 01:45:59 11° SSE 01:47:16 10° SE night (unlit)
23 Dec - 03:33:36 10° SW 03:38:18 22° SSE 03:43:10 10° ESE visible
23 Dec - 05:25:40 10° WSW 05:30:52 26° S 05:36:20 10° SE visible
23 Dec - 07:19:04 10° WSW 07:23:30 19° SSW 07:28:06 10° SSE visible
24 Dec - 02:33:31 10° SSW 02:37:40 19° SSE 02:41:54 10° ESE night (unlit)
24 Dec - 04:25:04 10° SW 04:30:09 26° S 04:35:27 10° SE visible
24 Dec - 06:18:00 10° WSW 06:22:46 21° SSW 06:27:44 10° SE visible
24 Dec - 08:14:23 10° SSW 08:15:16 10° SSW 08:16:10 10° SSW daylight
25 Dec - 01:33:47 10° SSW 01:37:04 15° SSE 01:40:22 10° SE night (unlit)
25 Dec - 03:24:35 10° SW 03:29:28 24° S 03:34:30 10° ESE visible
25 Dec - 05:17:07 10° WSW 05:22:03 24° S 05:27:10 10° SE visible
25 Dec - 07:11:25 10° SW 07:14:35 14° SSW 07:17:49 10° S visible
26 Dec - 00:35:03 10° S 00:36:29 11° SSE 00:37:55 10° SE night (unlit)
26 Dec - 02:24:13 10° SW 02:28:49 22° S 02:33:29 10° ESE night (unlit)
26 Dec - 04:16:23 10° SW 04:21:21 25° S 04:26:29 10° SE visible
26 Dec - 06:09:54 10° SW 06:13:53 17° SSW 06:18:00 10° SSE visible
27 Dec - 01:24:03 10° SSW 01:28:12 19° SSE 01:32:20 10° ESE night (unlit)
27 Dec - 03:15:44 10° SW 03:20:40 25° S 03:25:43 10° SE visible
27 Dec - 05:08:46 10° WSW 05:13:13 20° SSW 05:17:48 10° SSE visible
28 Dec - 00:24:11 10° SSW 00:27:35 15° SSE 00:30:57 10° SE night (unlit)
28 Dec - 02:15:10 10° SW 02:20:01 24° S 02:24:53 10° ESE night (unlit)
28 Dec - 04:07:50 10° WSW 04:12:32 23° S 04:17:22 10° SE visible
28 Dec - 06:02:27 10° SW 06:04:59 13° SSW 06:07:35 10° S visible
28 Dec - 23:25:02 10° S 23:26:58 11° SSE 23:28:54 10° SE night (unlit)
29 Dec - 01:14:43 10° SW 01:19:22 22° S 01:23:59 10° ESE night (unlit)
29 Dec - 03:07:01 10° SW 03:11:53 24° S 03:16:48 10° SE visible
29 Dec - 05:00:43 10° SW 05:04:21 16° SSW 05:08:03 10° SSE visible
30 Dec - 00:14:25 10° SSW 00:18:43 19° SSE 00:22:57 10° ESE night (unlit)
30 Dec - 02:06:17 10° SW 02:11:13 25° S 02:16:09 10° SE night (unlit)
30 Dec - 03:59:29 10° WSW 04:03:43 19° SSW 04:08:01 10° SSE visible
30 Dec - 23:14:21 10° SSW 23:18:05 16° SSE 23:21:43 10° SE night (unlit)
31 Dec - 01:05:37 10° SW 01:10:34 24° S 01:15:25 10° ESE night (unlit)
31 Dec - 02:58:26 10° WSW 03:03:05 22° S 03:07:43 10° SE night (unlit)
31 Dec - 04:53:29 10° SW 04:55:28 12° SSW 04:57:27 10° S visible
31 Dec - 22:14:50 10° S 22:17:26 12° SSE 22:19:59 10° SE night (unlit)
